Location: Unspecified
(0.0000°N, 0.0000°E)
Time: 11:58:09
(UTC+00:00)

LightSail 2 - Pass Details

Date: 01 April 2020
Orbit: 693 x 726 km, 24.0° (Epoch: 02 April)

Event Time Altitude Azimuth Distance (km) Brightness Sun altitude
Exits shadow 04:27:29 31° 342° (NNW) 1,206 6.2 -24.0°
Drops below altitude 10° 04:31:39 10° 38° (NE) 2,136 8.1 -23.0°
Sets 04:34:18 0° 48° (NE) 3,055 9.3 -22.3°
